Location: Marcé
(47.5801°N, 0.3280°W)
Time: 07:28:00
(UTC+01:00)

Altair - Pass Details

Date: 09 December 2021
Orbit: 1501 x 1683 km, 47.2° (Epoch: 21 January)

Event Time Altitude Azimuth Distance (km) Brightness Sun altitude
Rises 18:19:24 0° 272° (W) 4,758 11.4 -11.2°
Reaches altitude 10° 18:22:31 10° 273° (W) 3,750 10.7 -11.7°
Maximum altitude 18:32:00 88° 185° (S) 1,529 7.5 -13.2°
Enters shadow 18:40:17 14° 98° (E) 3,354 8.7 -14.5°
Drops below altitude 10° 18:41:13 10° 98° (E) 3,654 - -14.6°
Sets 18:44:12 0° 98° (E) 4,631 - -15.1°
